If you wish to contribute or participate in the discussions about articles you are invited to join SKYbrary as a registered user

 Actions

Shimojishima Airport

From SKYbrary Wiki

RORS
Airport
ICAO: RORS – IATA: SHI
Summary
Name Shimojishima Airport
Region Asia and Pacific
Territory Japan JP.gif
Location Shimojishima, Okinawa Prefecture
Serving Miyakojima
Elevation 7.62 m <br />25 ft7.62 m <br />
Coordinates 24° 49' 36.88" N, 125° 8' 56.86" E
Runways
Designator Length Width Surface ROPS
17/35 3000 m9,842.52 ft <br /> 61 m200.131 ft <br /> ASP yes/yes


METAR
Observation RORS 230800Z 09013KT 9999 FEW012 SCT030 BKN110 27/25 Q1007
Station Shimoji-Shima Island
Date/Time 23 June 2021 08:00:00
Wind direction 90°
Wind speed 13 kts
Lowest cloud amount few clouds
Temperature 27°C
Dew point 25°C
Humidity 88%
QNH 1007 hPa
Weather condition n/a

Shimojishima Airport is located on the island of Shimojishima in Miyakojima, Okinawa Prefecture, Japan.

Climatology

Humid Sub-tropical climate (Köppen climate classification Cfa)

Maps

Terrain

Loading map...

Airport Layout

Loading map...


Accidents & Serious Incidents at or in vicinity of RORS

None on SKYbrary